STARLINK-3156 (49458 NORAD) Tracking and Keplerian Element Data

This shows tracking and keplerian element data for the satellite.

Feedback or suggestion? Click here.




ElementValue
Catalog49458
NameSTARLINK-3156
Epoch Orbit371
Epoch Day339.91667824
Epoch Year2021
RAAN22.1998
Inclination53.2189
Eccentricity0.0001986
Argument of Perigee32.0768
Mean Anonmoly55.7506
Mean Motion15.73150339
Decay Rate0.00047967
L11 49458U 21104BC 21339.91667824 .00047967 00000+0 34495-3 0 9999
L22 49458 53.2189 22.1998 0001986 32.0768 55.7506 15.73150339 3717

Live tracking and technical data element details for STARLINK-3156 (NORAD 49458). STARLINK-3156 can be tracked NOW for your location showing map with azimuth and elevation plus other details from your city location.

Track the satellite on the map from your city or location and see movement details for azimuth, elevation, latitude, longitude, range, height, and movement on the map or in text.







IsCatalogInMostPopularTable: catalog: 49458, numindb: 1
Update: records affected: 1



GetName: 49458 STARLINK-3156

Hit Count: updated at: Wed, 08 Dec 2021 16:44:15 GMT